CW3175 Weather Reports


time (UTC)temp
F
wind
direction
speed
knots
gust
knots
rain 1hr
in
rain 24hr
in
rain mn
in
humidity
%
barometer
mb
20140724151753 66 31 6.1 11.3 0.00 0.00 0.00 74 1019.4
20140724150253 66 42 6.1 11.3 0.00 0.00 0.00 73 1019.4
20140724144751 65 26 7.8 13.9 0.00 0.00 0.00 74 1019.4
20140724143247 66 65 5.2 14.8 0.00 0.00 0.00 72 1019.7
20140724141745 66 51 5.2 12.2 0.00 0.00 0.00 73 1019.7
20140724140244 66 46 6.1 13.9 0.00 0.00 0.00 72 1019.7
20140724134744 66 29 5.2 10.4 0.00 0.00 0.00 71 1019.7
20140724133245 66 50 4.3 10.4 0.00 0.00 0.00 70 1019.7
20140724131743 66 43 3.5 11.3 0.00 0.00 0.00 70 1019.8
20140724130242 66 38 4.3 10.4 0.00 0.00 0.00 70 1019.7
20140724124741 65 53 4.3 9.6 0.00 0.00 0.00 71 1019.5
20140724123240 65 46 4.3 9.6 0.00 0.00 0.00 71 1019.4
20140724121735 65 5 2.6 6.1 0.00 0.00 0.00 71 1019.5
20140724120235 65 38 1.7 6.1 0.00 0.00 0.00 73 1019.2
20140724114731 64 11 3.5 7.8 0.00 0.00 0.00 74 1019.1
20140724113233 64 36 2.6 7.8 0.00 0.00 0.00 76 1019.0
20140724111733 63 336 2.6 7.8 0.00 0.00 0.00 77 1018.9
20140724110215 63 36 2.6 8.7 0.00 0.00 0.00 77 1018.8
20140724104713 63 59 2.6 5.2 0.00 0.00 0.00 78 1018.6
20140724103214 63 32 4.3 7.8 0.00 0.00 0.00 79 1018.6
20140724101713 63 19 2.6 7.8 0.00 0.00 0.00 80 1018.4
20140724100213 63 0 4.3 7.8 0.00 0.00 0.00 80 1018.3
20140724094713 63 37 2.6 8.7 0.00 0.00 0.00 81 1018.3
20140724093214 63 52 2.6 6.1 0.00 0.00 0.00 81 1018.1
20140724091710 63 21 2.6 7.8 0.00 0.00 0.00 81 1018.0
20140724084706 63 30 4.3 8.7 0.00 0.00 0.00 81 1017.7
20140724083204 63 26 2.6 8.7 0.00 0.00 0.00 80 1017.7
20140724081706 63 32 3.5 8.7 0.00 0.00 0.00 81 1017.8
20140724080205 63 64 4.3 9.6 0.00 0.00 0.00 82 1017.7
20140724074702 63 55 3.5 7.0 0.00 0.00 0.00 82 1017.8
20140724073203 64 39 2.6 7.8 0.00 0.00 0.00 82 1017.9
20140724071700 64 41 3.5 8.7 0.00 0.00 0.00 82 1017.9
20140724070200 64 31 3.5 8.7 0.00 0.00 0.00 82 1018.0
20140724064655 64 9 2.6 8.7 0.00 0.00 0.00 82 1017.9
20140724063152 64 21 6.1 10.4 0.00 0.00 0.00 80 1017.9
20140724061650 64 40 5.2 11.3 0.00 0.00 0.00 79 1017.9
20140724060148 64 19 6.1 11.3 0.00 0.00 0.00 77 1018.0
20140724054646 64 11 6.1 11.3 0.00 0.00 0.00 75 1018.0
20140724053145 64 45 2.6 11.3 0.00 0.00 0.00 73 1018.0
20140724051645 64 50 7.0 13.9 0.00 0.00 0.00 73 1018.1
20140724050139 64 34 5.2 12.2 0.00 0.00 0.00 73 1018.2
20140724044637 64 9 7.0 14.8 0.00 0.14 0.00 71 1018.1
20140724043135 64 351 4.3 12.2 0.00 0.44 0.00 71 1018.1
20140724041633 64 342 4.3 11.3 0.00 0.44 0.00 71 1018.2
20140724040131 64 20 6.1 13.9 0.00 0.44 0.00 70 1018.2
20140724034631 64 56 3.5 12.2 0.00 0.44 0.00 68 1018.1
20140724033130 64 0 6.1 13.9 0.00 0.44 0.00 66 1018.1
20140724031629 65 341 6.1 13.9 0.00 0.44 0.00 64 1018.0
20140724030135 65 16 7.0 15.6 0.00 0.44 0.00 62 1018.1
20140724024628 65 38 6.1 15.6 0.00 0.44 0.00 62 1018.1
20140724023127 65 52 6.1 13.9 0.00 0.44 0.00 61 1018.1
20140724021625 65 351 6.1 14.8 0.00 0.44 0.00 61 1018.0
20140724020125 65 31 4.3 10.4 0.00 0.44 0.00 60 1017.9
20140724014627 65 16 4.3 13.0 0.00 0.44 0.00 60 1018.0
20140724013127 65 317 6.1 12.2 0.00 0.44 0.00 61 1018.2
20140724011628 65 26 4.3 15.6 0.00 0.44 0.00 60 1018.3
20140724010123 65 32 6.1 15.6 0.00 0.44 0.00 60 1018.4
20140724004620 65 29 6.1 15.6 0.00 0.44 0.00 59 1018.5
20140724003120 65 22 6.1 13.9 0.00 0.44 0.00 59 1018.6
20140724001617 65 41 8.7 16.5 0.00 0.44 0.00 59 1018.6
20140724000118 66 351 7.0 14.8 0.00 0.44 0.00 60 1018.6
20140723234617 65 19 8.7 16.5 0.00 0.44 0.00 61 1018.5
20140723233118 66 24 8.7 17.4 0.00 0.44 0.00 62 1018.5
20140723231616 66 32 6.1 14.8 0.00 0.44 0.00 65 1018.6
20140723230113 66 63 7.0 14.8 0.00 0.44 0.00 64 1018.5
20140723224613 66 28 8.7 17.4 0.00 0.44 0.00 64 1018.5
20140723223113 67 10 7.8 14.8 0.00 0.44 0.00 62 1018.3
20140723221614 67 56 8.7 14.8 0.00 0.44 0.00 61 1018.2
20140723220115 67 9 7.8 20.0 0.00 0.44 0.00 59 1018.4
20140723214612 67 51 7.8 17.4 0.00 0.44 0.00 58 1018.5
20140723213112 67 34 8.7 16.5 0.00 0.44 0.00 59 1018.5
20140723211607 67 12 9.6 17.4 0.00 0.44 0.00 60 1018.5
20140723210109 68 46 8.7 20.9 0.00 0.44 0.00 56 1018.5
20140723204607 68 96 9.6 18.2 0.00 0.44 0.00 52 1018.6
20140723203107 69 38 8.7 14.8 0.00 0.44 0.00 49 1018.5
20140723201606 69 28 7.8 15.6 0.00 0.44 0.00 52 1018.7
20140723200108 70 0 7.0 16.5 0.00 0.44 0.00 54 1018.5
20140723194603 68 34 9.6 19.1 0.00 0.44 0.00 58 1018.7
20140723193102 68 9 9.6 17.4 0.00 0.44 0.00 62 1018.8
20140723191600 69 17 8.7 18.2 0.00 0.44 0.00 61 1018.6
20140723190101 70 13 7.0 14.8 0.00 0.44 0.00 57 1018.4
20140723184602 70 29 7.0 19.1 0.00 0.44 0.00 55 1018.6
20140723183101 69 0 9.6 18.2 0.00 0.44 0.00 56 1019.0
20140723181602 69 22 7.8 14.8 0.00 0.44 0.00 58 1019.0
20140723180059 68 36 7.0 13.9 0.00 0.44 0.00 68 1019.2
20140723174556 68 19 7.0 13.9 0.00 0.44 0.00 66 1019.5
20140723173056 68 88 7.0 18.2 0.00 0.44 0.00 67 1019.4
20140723171556 68 20 7.0 13.0 0.00 0.44 0.00 66 1019.1
20140723170058 67 40 8.7 14.8 0.00 0.44 0.00 69 1019.5
20140723164555 68 13 7.0 16.5 0.00 0.44 0.00 67 1019.4
20140723163053 67 26 9.6 17.4 0.00 0.44 0.00 68 1019.2
20140723161552 67 43 8.7 16.5 0.00 0.44 0.00 68 1018.7
20140723160049 67 16 9.6 18.2 0.00 0.44 0.00 69 1018.6
20140723154548 67 55 9.6 19.1 0.00 0.44 0.00 69 1018.5
20140723153047 67 346 10.4 20.0 0.00 0.44 0.00 68 1018.2